When you browse on this site, cookies collect data to enhance your experience and personalize the content and advertising you see.
Visit our Privacy Policy to learn more. By continuing to use the site, you agree to this use of cookies and data.
  • In Lithuania
  • List of Countries
  • For 7 days
  • Water Temperature
  • Satellite Maps
  • Weather Map
  • Weather Widgets
  • user-avatar
    Login

    Hourly Weather Klagenfurt

    Today, 24 June, Monday

    Time Temperature Precipitation Wind Pressure Humidity
    00:00 +14°C° 0 mm 1 mps 692 mmHg 91%
    01:00 +14°C° 0 mm 1 mps 693 mmHg 92%
    02:00 +14°C° 0 mm 1 mps 693 mmHg 92%
    03:00 +14°C° 0 mm 1 mps 693 mmHg 92%
    04:00 +14°C° 0 mm 1 mps 693 mmHg 93%
    05:00 +16°C° 0 mm 1 mps 693 mmHg 88%
    06:00 +18°C° 0 mm 1 mps 693 mmHg 83%
    07:00 +20°C° 0 mm 1 mps 694 mmHg 80%
    08:00 +22°C° 0 mm 1 mps 694 mmHg 72%
    09:00 +23°C° 0 mm 1 mps 694 mmHg 64%
    10:00 +25°C° 0 mm 1 mps 695 mmHg 57%
    11:00 +26°C° 0.2 mm 1 mps 695 mmHg 55%
    12:00 +27°C° 0.2 mm 1 mps 695 mmHg 52%
    13:00 +27°C° 0.2 mm 1 mps 695 mmHg 50%
    14:00 +27°C° 0.4 mm 1 mps 695 mmHg 54%
    15:00 +26°C° 0.4 mm 1 mps 695 mmHg 58%
    16:00 +26°C° 0.4 mm 1 mps 695 mmHg 62%
    17:00 +25°C° 0.3 mm 1 mps 695 mmHg 71%
    18:00 +23°C° 0.3 mm 1 mps 695 mmHg 79%
    19:00 +22°C° 0.3 mm 1 mps 695 mmHg 88%
    20:00 +18°C° 0 mm 0 mps 695 mmHg 90%
    21:00 +17°C° 0 mm 0 mps 695 mmHg 91%
    22:00 +16°C° 0 mm 0 mps 695 mmHg 93%
    23:00 +16°C° 0 mm 0 mps 695 mmHg 94%

    Tomorrow, 25 June, Tuesday

    Time Temperature Precipitation Wind Pressure Humidity
    00:00 +15°C° 0 mm 0 mps 695 mmHg 94%
    01:00 +15°C° 0 mm 0 mps 695 mmHg 94%
    02:00 +15°C° 0 mm 0 mps 695 mmHg 94%
    03:00 +14°C° 0 mm 0 mps 694 mmHg 95%
    04:00 +14°C° 0 mm 0 mps 694 mmHg 95%
    05:00 +16°C° 0 mm 0 mps 695 mmHg 93%
    06:00 +17°C° 0 mm 0 mps 695 mmHg 90%
    07:00 +19°C° 0 mm 0 mps 696 mmHg 88%
    08:00 +23°C° 0 mm 1 mps 696 mmHg 78%
    09:00 +25°C° 0 mm 1 mps 697 mmHg 67%
    10:00 +27°C° 0 mm 1 mps 697 mmHg 57%
    11:00 +28°C° 0 mm 1 mps 697 mmHg 54%
    12:00 +29°C° 0 mm 1 mps 697 mmHg 51%
    13:00 +30°C° 0 mm 1 mps 697 mmHg 48%
    14:00 +29°C° 0 mm 1 mps 697 mmHg 49%
    15:00 +29°C° 0 mm 1 mps 697 mmHg 51%
    16:00 +29°C° 0 mm 1 mps 697 mmHg 52%
    17:00 +28°C° 0 mm 1 mps 697 mmHg 62%
    18:00 +26°C° 0 mm 1 mps 697 mmHg 72%
    19:00 +24°C° 0 mm 1 mps 697 mmHg 82%
    20:00 +23°C° 0 mm 1 mps 697 mmHg 86%
    21:00 +21°C° 0 mm 1 mps 697 mmHg 90%
    22:00 +20°C° 0 mm 1 mps 697 mmHg 94%
    23:00 +18°C° 0 mm 0 mps 697 mmHg 94%

    Day after tomorrow, 26 June, Wednesday

    Time Temperature Precipitation Wind Pressure Humidity
    00:00 +17°C° 0 mm 0 mps 697 mmHg 94%
    01:00 +17°C° 0 mm 0 mps 697 mmHg 95%
    02:00 +17°C° 0 mm 0 mps 696 mmHg 95%
    03:00 +16°C° 0 mm 0 mps 696 mmHg 96%
    04:00 +16°C° 0 mm 0 mps 696 mmHg 96%
    05:00 +18°C° 0 mm 0 mps 696 mmHg 92%
    06:00 +19°C° 0 mm 0 mps 697 mmHg 88%
    07:00 +21°C° 0 mm 0 mps 697 mmHg 84%
    08:00 +25°C° 0 mm 1 mps 698 mmHg 75%
    09:00 +27°C° 0 mm 1 mps 698 mmHg 65%
    10:00 +29°C° 0 mm 1 mps 698 mmHg 55%
    11:00 +30°C° 0 mm 1 mps 698 mmHg 50%
    12:00 +31°C° 0 mm 1 mps 698 mmHg 45%
    13:00 +32°C° 0 mm 1 mps 698 mmHg 40%
    14:00 +32°C° 0 mm 1 mps 698 mmHg 41%
    15:00 +32°C° 0 mm 1 mps 698 mmHg 41%
    16:00 +32°C° 0 mm 1 mps 697 mmHg 41%
    17:00 +30°C° 0 mm 1 mps 697 mmHg 53%
    18:00 +28°C° 0 mm 1 mps 696 mmHg 64%
    19:00 +26°C° 0 mm 1 mps 696 mmHg 76%
    20:00 +24°C° 0 mm 1 mps 696 mmHg 78%
    21:00 +23°C° 0 mm 1 mps 696 mmHg 81%
    22:00 +22°C° 0 mm 1 mps 696 mmHg 83%
    23:00 +21°C° 0 mm 1 mps 696 mmHg 84%

    27 June, Thursday

    Time Temperature Precipitation Wind Pressure Humidity
    00:00 +21°C° 0 mm 1 mps 696 mmHg 85%
    01:00 +20°C° 0 mm 1 mps 696 mmHg 86%
    02:00 +20°C° 0 mm 1 mps 695 mmHg 86%
    03:00 +20°C° 0 mm 1 mps 695 mmHg 86%
    04:00 +19°C° 0 mm 1 mps 695 mmHg 87%
    05:00 +21°C° 0 mm 1 mps 695 mmHg 81%
    06:00 +23°C° 0 mm 1 mps 695 mmHg 75%
    07:00 +24°C° 0 mm 1 mps 695 mmHg 70%
    08:00 +27°C° 0 mm 1 mps 696 mmHg 61%
    09:00 +29°C° 0 mm 1 mps 696 mmHg 53%
    10:00 +31°C° 0 mm 1 mps 696 mmHg 44%
    11:00 +33°C° 0 mm 1 mps 696 mmHg 40%
    12:00 +34°C° 0 mm 1 mps 696 mmHg 36%
    13:00 +35°C° 0 mm 1 mps 696 mmHg 32%
    14:00 +35°C° 0 mm 1 mps 695 mmHg 32%
    15:00 +34°C° 0 mm 1 mps 695 mmHg 33%
    16:00 +34°C° 0 mm 1 mps 695 mmHg 33%
    17:00 +32°C° 0 mm 1 mps 694 mmHg 45%
    18:00 +29°C° 0 mm 1 mps 694 mmHg 56%
    19:00 +25°C° 0 mm 0 mps 693 mmHg 68%
    20:00 +23°C° 0.2 mm 0 mps 693 mmHg 71%
    21:00 +22°C° 0.2 mm 0 mps 693 mmHg 74%
    22:00 +20°C° 0.2 mm 0 mps 693 mmHg 76%
    23:00 +19°C° 0.4 mm 0 mps 693 mmHg 82%

    28 June, Friday

    Time Temperature Precipitation Wind Pressure Humidity
    00:00 +20°C° 0.4 mm 1 mps 693 mmHg 87%
    01:00 +20°C° 0.4 mm 1 mps 693 mmHg 92%
    02:00 +19°C° 0 mm 1 mps 693 mmHg 94%
    03:00 +19°C° 0 mm 1 mps 693 mmHg 95%
    04:00 +19°C° 0 mm 1 mps 693 mmHg 97%
    05:00 +17°C° 0 mm 0 mps 693 mmHg 93%
    06:00 +18°C° 0 mm 0 mps 693 mmHg 90%
    07:00 +19°C° 0 mm 0 mps 693 mmHg 87%
    08:00 +23°C° 0 mm 1 mps 693 mmHg 79%
    09:00 +24°C° 0 mm 1 mps 694 mmHg 71%
    10:00 +26°C° 0 mm 1 mps 694 mmHg 63%
    11:00 +27°C° 0 mm 1 mps 694 mmHg 57%
    12:00 +29°C° 0 mm 1 mps 694 mmHg 51%
    13:00 +30°C° 0 mm 1 mps 694 mmHg 45%
    14:00 +30°C° 0.1 mm 1 mps 694 mmHg 47%
    15:00 +29°C° 0.1 mm 2 mps 693 mmHg 48%
    16:00 +29°C° 0.1 mm 2 mps 693 mmHg 49%
    17:00 +27°C° 0.1 mm 1 mps 693 mmHg 60%
    18:00 +25°C° 0.1 mm 1 mps 693 mmHg 71%
    19:00 +23°C° 0.1 mm 1 mps 693 mmHg 82%
    20:00 +22°C° 0 mm 1 mps 693 mmHg 85%
    21:00 +20°C° 0 mm 1 mps 693 mmHg 87%
    22:00 +19°C° 0 mm 1 mps 693 mmHg 90%
    23:00 +18°C° 0 mm 1 mps 693 mmHg 90%

    29 June, Saturday

    Time Temperature Precipitation Wind Pressure Humidity
    00:00 +15°C° 0 mm 0 mps 693 mmHg 90%
    01:00 +15°C° 0 mm 0 mps 693 mmHg 91%
    02:00 +14°C° 0 mm 0 mps 692 mmHg 91%
    03:00 +14°C° 0 mm 0 mps 692 mmHg 91%
    04:00 +13°C° 0 mm 0 mps 692 mmHg 92%
    05:00 +15°C° 0 mm 0 mps 692 mmHg 87%
    06:00 +16°C° 0 mm 0 mps 693 mmHg 83%
    07:00 +20°C° 0 mm 1 mps 693 mmHg 78%
    08:00 +21°C° 0 mm 1 mps 693 mmHg 70%
    09:00 +23°C° 0 mm 1 mps 693 mmHg 62%
    10:00 +24°C° 0 mm 1 mps 694 mmHg 55%
    11:00 +26°C° 0 mm 1 mps 694 mmHg 51%
    12:00 +27°C° 0 mm 1 mps 694 mmHg 47%
    13:00 +28°C° 0 mm 1 mps 694 mmHg 43%
    14:00 +28°C° 0 mm 2 mps 693 mmHg 45%
    15:00 +27°C° 0 mm 2 mps 693 mmHg 47%
    16:00 +27°C° 0 mm 2 mps 693 mmHg 49%
    17:00 +25°C° 0 mm 2 mps 693 mmHg 58%
    18:00 +24°C° 0 mm 1 mps 693 mmHg 67%
    19:00 +22°C° 0 mm 1 mps 693 mmHg 77%
    20:00 +20°C° 0 mm 1 mps 693 mmHg 80%
    21:00 +19°C° 0 mm 1 mps 693 mmHg 84%
    22:00 +16°C° 0 mm 1 mps 693 mmHg 88%
    23:00 +14°C° 0 mm 0 mps 693 mmHg 89%
    Show more